Вернуться в каталог

RAPIDEYE 1

АктивенНаукаSSO
NORAD 33314·PAYLOAD·🇩🇪 Germany

Запущен Aug 29, 2008 с Baikonur Cosmodrome

Loading…

Ближайшие Пролёты (ближайшие 24 часа)

TLE

СвежийSource: Space-Track

Эпоха: Sep 14, 2026, 12:36 UTC

1 33314U 08040C   26257.52555234  .00000805  00000-0  62782-4 0  9991
2 33314  97.4072 281.6922 0025486 232.4618 127.4293 15.03640968979089

Отслеживайте RAPIDEYE 1 в реальном времени с AllMySat

Download on the App Store